Regional Weather Roundup
Issued by NWS

Home | Current Version | Previous Version | Graphics & Text | Print | Product List | Glossary On
Versions: 1 2 3 4 5 6 7 8 9 10 11 12 13 14 15 16 17 18 19 20 21 22 23 24 25 26 27 28 29 30 31 32 33 34 35 36 37 38 39 40 41 42 43 44 45 46 47 48 49 50
000
ASUS43 KBIS 192210
RWRND

NORTH DAKOTA REGIONAL WEATHER ROUNDUP
NATIONAL WEATHER SERVICE BISMARCK ND
400 PM CST FRI DEC 19 2014

NOTE: "FAIR" INDICATES FEW OR NO CLOUDS BELOW 12,000 FEET WITH NO
SIGNIFICANT WEATHER AND/OR OBSTRUCTIONS TO VISIBILITY.


NDZ001>003-009>011-017-192300-
NORTHWEST NORTH DAKOTA

CITY           SKY/WX    TMP DP  RH WIND       PRES   REMARKS
WILLISTON      CLOUDY    27  25  92 S3        29.91R
MINOT          CLOUDY    27  25  92 W3        29.93R FOG
MINOT AFB      CLOUDY    26  26 100 W3        29.93R
$$

NDZ018>021-031>035-040>046-192300-
SOUTHWEST NORTH DAKOTA

CITY           SKY/WX    TMP DP  RH WIND       PRES   REMARKS
BISMARCK       CLEAR     37  27  67 E3        29.93R
DICKINSON      CLEAR     43  28  55 W6        29.87R
GARRISON         N/A     28  26  92 CALM      29.92R
HETTINGER ARPT CLEAR     43  27  53 W8        29.91R
$$

NDZ004>008-012>016-024-026-027-054-192300-
NORTHEAST NORTH DAKOTA

CITY           SKY/WX    TMP DP  RH WIND       PRES   REMARKS
GRAND FORKS    CLOUDY    28  27  96 S8        30.01R FOG     WCI  20
GRND FRKS AFB  CLOUDY    28  28 100 S9        30.00S FOG     WCI  19
DEVILS LAKE    CLOUDY    27  19  74 SW5       29.94R
$$

NDZ022-023-025-028>030-036>039-047>053-192300-
SOUTHEAST NORTH DAKOTA

CITY           SKY/WX    TMP DP  RH WIND       PRES   REMARKS
FARGO          CLOUDY    31  28  89 S14       30.02S FOG
JAMESTOWN      MOCLDY    31  27  85 S10       29.94S
$$



USA.gov is the U.S. government's official web portal to all federal, state and local government web resources and services.